Location: Unspecified
(48.7670°N, 0.0000°E)
Time: 03:31:20
(UTC+00:00)

Altair - Pass Details

Date: 04 July 2019
Orbit: 1501 x 1683 km, 47.2° (Epoch: 17 July)

Event Time Altitude Azimuth Distance (km) Brightness Sun altitude
Rises 00:10:30 0° 289° (WNW) 4,801 10.3 -18.3°
Reaches altitude 10° 00:14:29 10° 275° (W) 3,843 9.6 -18.3°
Maximum altitude 00:21:18 22° 230° (SW) 3,053 8.7 -18.2°
Enters shadow 00:23:42 20° 212° (SSW) 3,177 8.6 -18.2°
Drops below altitude 10° 00:28:15 10° 185° (S) 3,914 - -18.1°
Sets 00:32:24 0° 171° (S) 4,913 - -18.0°
